User: anonymous
Location: Bonny Doon Airfield
(37.0704°N, 122.1252°W)
Time: 19:36:11
(UTC-07:00)
Language:

BREEZE M DEB (TANK) - Orbit

View from above orbital plane
View from above orbital plane
View from above satellite
View from above satellite

Ground track
Ground track

The orbit data is extracted from the following two-line orbital elements,

1 33437U 08057B   14207.75764387  .00001630  00000-0  52335-3 0   656
2 33437 049.5696 066.1516 5007195 030.7842 028.3503 05.55716134114843
Epoch (UTC): 26 July 2014 18:11:00
Eccentricity: 0.5007195
inclination: 49.5696°
perigee height: 344 km
apogee height: 13827 km
right ascension of ascending node: 66.1516°
argument of perigee: 30.7842°
revolutions per day: 5.55716134
mean anomaly at epoch: 28.3503°
orbit number at epoch: 11484

The dashed part of the orbit path shows where the satellite is in the earth's shadow,  

DLR